Cosmos 1606 - Orbit

View from above orbital plane
View from above orbital plane
View from above satellite
View from above satellite

Ground track
Ground track

The orbit data is extracted from the following two-line orbital elements,

1 15369U 84111A   13139.48609851  .00004334  00000-0  28440-3 0  2513
2 15369 082.5076 141.2905 0013574 021.9391 338.2415 15.07357397555302
Epoch (UTC): 19 May 2013 11:39:58
Eccentricity: 0.0013574
inclination: 82.5076°
perigee height: 535 km
apogee height: 553 km
right ascension of ascending node: 141.2905°
argument of perigee: 21.9391°
revolutions per day: 15.07357397
mean anomaly at epoch: 338.2415°
orbit number at epoch: 55530

The dashed part of the orbit path shows where the satellite is in the earth's shadow,  

Developed and maintained by Chris Peat, Heavens-Above GmbH. Please read the updated FAQ before sending e-mail. Imprint. DLR